| time (UTC) | temp F | wind direction | speed MPH | gust MPH | rain 1hr in | rain 24hr in | rain mn in | humidity % | barometer mb |
| 20260503193059 | 61 | 147 | 7.0 | 20.0 | 0.00 | 0.00 | 0.00 | 44 | 1008.5 |
| 20260503192556 | 62 | 182 | 7.0 | 19.0 | 0.00 | 0.00 | 0.00 | 43 | 1008.5 |
| 20260503192055 | 61 | 182 | 8.0 | 20.0 | 0.00 | 0.00 | 0.00 | 43 | 1008.6 |
| 20260503191600 | 62 | 175 | 8.0 | 20.0 | 0.00 | 0.00 | 0.00 | 42 | 1008.6 |
| 20260503191100 | 61 | 162 | 7.0 | 18.0 | 0.00 | 0.00 | 0.00 | 43 | 1008.9 |
| 20260503190559 | 61 | 221 | 6.0 | 18.0 | 0.00 | 0.00 | 0.00 | 46 | 1009.0 |
| 20260503190055 | 61 | 347 | 7.0 | 15.0 | 0.00 | 0.00 | 0.00 | 42 | 1009.0 |
| 20260503185554 | 61 | 261 | 6.0 | 15.0 | 0.00 | 0.00 | 0.00 | 44 | 1009.2 |
| 20260503185101 | 61 | 234 | 7.0 | 16.0 | 0.00 | 0.00 | 0.00 | 43 | 1009.1 |
| 20260503184559 | 62 | 261 | 7.0 | 19.0 | 0.00 | 0.00 | 0.00 | 42 | 1009.2 |
| 20260503184059 | 62 | 180 | 9.0 | 19.0 | 0.00 | 0.00 | 0.00 | 42 | 1009.2 |
| 20260503183558 | 62 | 207 | 6.0 | 16.0 | 0.00 | 0.00 | 0.00 | 44 | 1009.3 |
| 20260503183058 | 62 | 257 | 5.0 | 15.0 | 0.00 | 0.00 | 0.00 | 41 | 1009.4 |
| 20260503182554 | 61 | 244 | 7.0 | 18.0 | 0.00 | 0.00 | 0.00 | 46 | 1009.5 |
| 20260503182054 | 61 | 192 | 7.0 | 18.0 | 0.00 | 0.00 | 0.00 | 42 | 1009.5 |
| 20260503181600 | 62 | 167 | 7.0 | 21.0 | 0.00 | 0.00 | 0.00 | 43 | 1009.5 |
| 20260503181054 | 61 | 186 | 9.0 | 21.0 | 0.00 | 0.00 | 0.00 | 42 | 1009.5 |
| 20260503180557 | 62 | 169 | 7.0 | 23.0 | 0.00 | 0.00 | 0.00 | 41 | 1009.7 |
| 20260503175555 | 61 | 137 | 8.0 | 23.0 | 0.00 | 0.00 | 0.00 | 41 | 1009.8 |
| 20260503175055 | 62 | 249 | 4.0 | 13.0 | 0.00 | 0.00 | 0.00 | 42 | 1010.0 |
| 20260503174559 | 62 | 63 | 6.0 | 14.0 | 0.00 | 0.00 | 0.00 | 42 | 1009.8 |
| 20260503174055 | 62 | 269 | 4.0 | 18.0 | 0.00 | 0.00 | 0.00 | 41 | 1010.0 |
| 20260503173558 | 61 | 333 | 6.0 | 18.0 | 0.00 | 0.00 | 0.00 | 41 | 1010.2 |
| 20260503173110 | 59 | 210 | 6.0 | 15.0 | 0.00 | 0.00 | 0.00 | 43 | 1010.2 |
| 20260503172554 | 59 | 184 | 4.0 | 15.0 | 0.00 | 0.00 | 0.00 | 46 | 1010.2 |
| 20260503172057 | 59 | 264 | 5.0 | 14.0 | 0.00 | 0.00 | 0.00 | 46 | 1010.4 |
| 20260503171559 | 59 | 188 | 4.0 | 20.0 | 0.00 | 0.00 | 0.00 | 45 | 1010.4 |
| 20260503171054 | 59 | 217 | 5.0 | 20.0 | 0.00 | 0.00 | 0.00 | 45 | 1010.4 |
| 20260503170558 | 60 | 182 | 5.0 | 17.0 | 0.00 | 0.00 | 0.00 | 44 | 1010.5 |
| 20260503150557 | 54 | 340 | 3.0 | 13.0 | 0.00 | 0.00 | 0.00 | 49 | 1011.6 |
| 20260503131054 | 50 | 240 | 1.0 | 8.0 | 0.00 | 0.00 | 0.00 | 56 | 1011.9 |
| 20260503130601 | 50 | 273 | 1.0 | 12.0 | 0.00 | 0.00 | 0.00 | 58 | 1011.9 |
| 20260503110557 | 37 | 128 | 2.0 | 8.0 | 0.00 | 0.00 | 0.00 | 70 | 1012.0 |
| 20260503110109 | 37 | 165 | 2.0 | 5.0 | 0.00 | 0.00 | 0.00 | 69 | 1012.0 |
| 20260503081558 | 36 | 168 | 0.0 | 4.0 | 0.00 | 0.00 | 0.00 | 69 | 1012.8 |
| 20260503081055 | 36 | 168 | 1.0 | 5.0 | 0.00 | 0.00 | 0.00 | 69 | 1012.9 |
| 20260503080555 | 35 | 0 | 0.0 | 5.0 | 0.00 | 0.00 | 0.00 | 71 | 1012.8 |
| 20260503072556 | 36 | 169 | 0.0 | 5.0 | 0.00 | 0.00 | 0.00 | 70 | 1012.9 |
| 20260503072055 | 36 | 169 | 1.0 | 5.0 | 0.00 | 0.00 | 0.00 | 67 | 1012.9 |
| 20260503071613 | 36 | 0 | 0.0 | 0.0 | 0.00 | 0.00 | 0.00 | 68 | 1013.0 |
| 20260503071055 | 36 | 0 | 0.0 | 0.0 | 0.00 | 0.00 | 0.00 | 70 | 1013.0 |
| 20260503070558 | 35 | 0 | 0.0 | 0.0 | 0.00 | 0.00 | 0.00 | 72 | 1013.1 |
| 20260503060116 | 34 | 0 | 0.0 | 0.0 | 0.00 | 0.00 | 0.00 | 78 | 1013.5 |
| 20260503055055 | 33 | 0 | 0.0 | 0.0 | 0.00 | 0.00 | 0.00 | 78 | 1013.6 |
| 20260503054601 | 33 | 0 | 0.0 | 0.0 | 0.00 | 0.00 | 0.00 | 78 | 1013.6 |
| 20260503054058 | 33 | 0 | 0.0 | 0.0 | 0.00 | 0.00 | 0.00 | 78 | 1013.7 |
| 20260503053557 | 33 | 0 | 0.0 | 0.0 | 0.00 | 0.00 | 0.00 | 78 | 1013.7 |
| 20260503053055 | 34 | 0 | 0.0 | 0.0 | 0.00 | 0.00 | 0.00 | 78 | 1013.7 |
| 20260503052555 | 34 | 0 | 0.0 | 0.0 | 0.00 | 0.00 | 0.00 | 78 | 1013.7 |
| 20260503052054 | 34 | 0 | 0.0 | 0.0 | 0.00 | 0.00 | 0.00 | 77 | 1013.7 |
| 20260503051555 | 34 | 0 | 0.0 | 0.0 | 0.00 | 0.00 | 0.00 | 76 | 1013.8 |
| 20260503051059 | 34 | 0 | 0.0 | 0.0 | 0.00 | 0.00 | 0.00 | 75 | 1013.8 |
| 20260503050555 | 34 | 0 | 0.0 | 0.0 | 0.00 | 0.00 | 0.00 | 75 | 1013.8 |
| 20260503050055 | 34 | 0 | 0.0 | 0.0 | 0.00 | 0.00 | 0.00 | 76 | 1013.9 |
| 20260503045555 | 34 | 0 | 0.0 | 0.0 | 0.00 | 0.00 | 0.00 | 76 | 1013.9 |
| 20260503045054 | 35 | 0 | 0.0 | 0.0 | 0.00 | 0.00 | 0.00 | 76 | 1013.9 |
| 20260503044558 | 35 | 0 | 0.0 | 0.0 | 0.00 | 0.00 | 0.00 | 75 | 1013.8 |
| 20260503044058 | 35 | 0 | 0.0 | 0.0 | 0.00 | 0.00 | 0.00 | 75 | 1013.8 |
| 20260503043554 | 35 | 0 | 0.0 | 0.0 | 0.00 | 0.00 | 0.00 | 75 | 1013.8 |
| 20260503043103 | 35 | 0 | 0.0 | 0.0 | 0.00 | 0.00 | 0.00 | 75 | 1013.8 |
| 20260503042557 | 35 | 0 | 0.0 | 0.0 | 0.00 | 0.00 | 0.00 | 75 | 1013.8 |
| 20260503042057 | 35 | 0 | 0.0 | 0.0 | 0.00 | 0.00 | 0.00 | 74 | 1013.9 |
| 20260503041557 | 35 | 0 | 0.0 | 0.0 | 0.00 | 0.00 | 0.00 | 76 | 1013.9 |
| 20260503041058 | 35 | 0 | 0.0 | 0.0 | 0.00 | 0.00 | 0.00 | 77 | 1014.0 |
| 20260503040559 | 35 | 0 | 0.0 | 0.0 | 0.00 | 0.00 | 0.00 | 78 | 1014.0 |
| 20260503040114 | 35 | 0 | 0.0 | 0.0 | 0.00 | 0.00 | 0.00 | 78 | 1014.1 |
| 20260503035555 | 35 | 0 | 0.0 | 0.0 | 0.00 | 0.00 | 0.00 | 78 | 1014.1 |
| 20260503035055 | 36 | 0 | 0.0 | 0.0 | 0.00 | 0.00 | 0.00 | 76 | 1014.1 |
| 20260503034559 | 36 | 0 | 0.0 | 0.0 | 0.00 | 0.00 | 0.00 | 77 | 1014.2 |
| 20260503034055 | 36 | 0 | 0.0 | 0.0 | 0.00 | 0.00 | 0.00 | 77 | 1014.1 |
| 20260503033554 | 36 | 0 | 0.0 | 0.0 | 0.00 | 0.00 | 0.00 | 77 | 1014.1 |
| 20260503033058 | 36 | 0 | 0.0 | 0.0 | 0.00 | 0.00 | 0.00 | 77 | 1014.1 |
| 20260503032558 | 36 | 0 | 0.0 | 0.0 | 0.00 | 0.00 | 0.00 | 76 | 1014.2 |
| 20260503032058 | 36 | 0 | 0.0 | 0.0 | 0.00 | 0.00 | 0.00 | 75 | 1014.2 |
| 20260503031605 | 36 | 0 | 0.0 | 0.0 | 0.00 | 0.00 | 0.00 | 76 | 1014.3 |
| 20260503031058 | 37 | 0 | 0.0 | 0.0 | 0.00 | 0.00 | 0.00 | 76 | 1014.2 |
| 20260503030558 | 37 | 0 | 0.0 | 0.0 | 0.00 | 0.00 | 0.00 | 75 | 1014.2 |
| 20260503030058 | 37 | 0 | 0.0 | 0.0 | 0.00 | 0.00 | 0.00 | 74 | 1014.3 |
| 20260503025559 | 37 | 0 | 0.0 | 0.0 | 0.00 | 0.00 | 0.00 | 73 | 1014.3 |
| 20260503025055 | 38 | 0 | 0.0 | 2.0 | 0.00 | 0.00 | 0.00 | 72 | 1014.3 |
| 20260503024554 | 38 | 0 | 0.0 | 2.0 | 0.00 | 0.00 | 0.00 | 73 | 1014.3 |
| 20260503024057 | 38 | 163 | 0.0 | 2.0 | 0.00 | 0.00 | 0.00 | 70 | 1014.3 |
| 20260503023555 | 39 | 0 | 0.0 | 2.0 | 0.00 | 0.00 | 0.00 | 68 | 1014.4 |
| 20260503023102 | 39 | 0 | 0.0 | 3.0 | 0.00 | 0.00 | 0.00 | 68 | 1014.3 |
| 20260503022555 | 39 | 165 | 0.0 | 4.0 | 0.00 | 0.00 | 0.00 | 67 | 1014.3 |
| 20260503022056 | 39 | 0 | 0.0 | 4.0 | 0.00 | 0.00 | 0.00 | 68 | 1014.4 |
| 20260503021603 | 39 | 0 | 0.0 | 2.0 | 0.00 | 0.00 | 0.00 | 67 | 1014.3 |
| 20260503021055 | 39 | 0 | 0.0 | 1.0 | 0.00 | 0.00 | 0.00 | 68 | 1014.4 |
| 20260503020555 | 39 | 0 | 0.0 | 2.0 | 0.00 | 0.00 | 0.00 | 66 | 1014.3 |
| 20260503020059 | 39 | 0 | 0.0 | 3.0 | 0.00 | 0.00 | 0.00 | 65 | 1014.2 |
| 20260503015556 | 40 | 182 | 0.0 | 3.0 | 0.00 | 0.00 | 0.00 | 64 | 1014.2 |
| 20260503015054 | 40 | 0 | 0.0 | 2.0 | 0.00 | 0.00 | 0.00 | 64 | 1014.2 |
| 20260503014610 | 40 | 205 | 0.0 | 2.0 | 0.00 | 0.00 | 0.00 | 63 | 1014.1 |
| 20260503014054 | 40 | 0 | 0.0 | 1.0 | 0.00 | 0.00 | 0.00 | 64 | 1014.1 |
| 20260503013554 | 40 | 0 | 0.0 | 1.0 | 0.00 | 0.00 | 0.00 | 64 | 1014.1 |
| 20260503013059 | 41 | 0 | 0.0 | 1.0 | 0.00 | 0.00 | 0.00 | 62 | 1014.1 |
| 20260503012555 | 41 | 0 | 0.0 | 0.0 | 0.00 | 0.00 | 0.00 | 61 | 1014.1 |
| 20260503012053 | 41 | 0 | 0.0 | 1.0 | 0.00 | 0.00 | 0.00 | 64 | 1014.1 |
| 20260503011600 | 42 | 0 | 0.0 | 2.0 | 0.00 | 0.00 | 0.00 | 63 | 1014.0 |
| 20260503011055 | 42 | 0 | 0.0 | 2.0 | 0.00 | 0.00 | 0.00 | 59 | 1014.0 |
| 20260503010555 | 43 | 0 | 0.0 | 0.0 | 0.00 | 0.00 | 0.00 | 58 | 1014.0 |
| 20260503010059 | 42 | 0 | 0.0 | 0.0 | 0.00 | 0.00 | 0.00 | 58 | 1014.0 |
| 20260503005555 | 42 | 0 | 0.0 | 0.0 | 0.00 | 0.00 | 0.00 | 58 | 1013.9 |
| 20260503005055 | 43 | 0 | 0.0 | 0.0 | 0.00 | 0.00 | 0.00 | 57 | 1013.9 |
| 20260503004555 | 43 | 0 | 0.0 | 0.0 | 0.00 | 0.00 | 0.00 | 58 | 1013.8 |
| 20260503004057 | 43 | 0 | 0.0 | 0.0 | 0.00 | 0.00 | 0.00 | 58 | 1013.9 |
| 20260503003554 | 44 | 0 | 0.0 | 0.0 | 0.00 | 0.00 | 0.00 | 57 | 1013.8 |
| 20260503003054 | 44 | 0 | 0.0 | 0.0 | 0.00 | 0.00 | 0.00 | 61 | 1013.9 |
| 20260503002555 | 44 | 0 | 0.0 | 0.0 | 0.00 | 0.00 | 0.00 | 60 | 1013.9 |
| 20260503002055 | 44 | 0 | 0.0 | 0.0 | 0.00 | 0.00 | 0.00 | 59 | 1013.8 |
| 20260503001606 | 44 | 0 | 0.0 | 0.0 | 0.00 | 0.00 | 0.00 | 58 | 1013.7 |
| 20260503001054 | 45 | 0 | 0.0 | 0.0 | 0.00 | 0.00 | 0.00 | 56 | 1013.8 |
| 20260503000559 | 44 | 0 | 0.0 | 0.0 | 0.00 | 0.00 | 0.00 | 60 | 1013.7 |
| 20260503000054 | 45 | 0 | 0.0 | 0.0 | 0.00 | 0.00 | 0.00 | 58 | 1013.7 |
| 20260502235554 | 46 | 0 | 0.0 | 4.0 | 0.00 | 0.00 | 0.00 | 56 | 1013.7 |
| 20260502235054 | 46 | 0 | 0.0 | 4.0 | 0.00 | 0.00 | 0.00 | 56 | 1013.7 |
| 20260502234558 | 46 | 331 | 0.0 | 4.0 | 0.00 | 0.00 | 0.00 | 55 | 1013.7 |
| 20260502234055 | 46 | 0 | 0.0 | 6.0 | 0.00 | 0.00 | 0.00 | 58 | 1013.7 |
| 20260502233555 | 46 | 0 | 1.0 | 6.0 | 0.00 | 0.00 | 0.00 | 54 | 1013.7 |
| 20260502233054 | 46 | 29 | 0.0 | 4.0 | 0.00 | 0.00 | 0.00 | 55 | 1013.8 |
| 20260502232557 | 46 | 17 | 0.0 | 4.0 | 0.00 | 0.00 | 0.00 | 54 | 1013.9 |
| 20260502232054 | 46 | 352 | 1.0 | 4.0 | 0.00 | 0.00 | 0.00 | 54 | 1013.9 |
| 20260502231557 | 46 | 360 | 1.0 | 4.0 | 0.00 | 0.00 | 0.00 | 54 | 1013.9 |
| 20260502231055 | 46 | 360 | 0.0 | 4.0 | 0.00 | 0.00 | 0.00 | 53 | 1013.9 |
| 20260502230555 | 46 | 317 | 1.0 | 5.0 | 0.00 | 0.00 | 0.00 | 52 | 1013.9 |
| 20260502230058 | 46 | 346 | 1.0 | 5.0 | 0.00 | 0.00 | 0.00 | 54 | 1014.0 |
| 20260502225554 | 46 | 280 | 1.0 | 6.0 | 0.00 | 0.00 | 0.00 | 53 | 1014.0 |
| 20260502225054 | 46 | 0 | 1.0 | 6.0 | 0.00 | 0.00 | 0.00 | 52 | 1014.0 |
| 20260502224604 | 46 | 329 | 1.0 | 5.0 | 0.00 | 0.00 | 0.00 | 52 | 1014.0 |
| 20260502224054 | 46 | 290 | 0.0 | 7.0 | 0.00 | 0.00 | 0.00 | 53 | 1014.1 |
| 20260502223554 | 46 | 333 | 2.0 | 7.0 | 0.00 | 0.00 | 0.00 | 51 | 1014.1 |
| 20260502223054 | 46 | 258 | 2.0 | 7.0 | 0.00 | 0.00 | 0.00 | 51 | 1014.1 |
| 20260502222553 | 46 | 282 | 1.0 | 4.0 | 0.00 | 0.00 | 0.00 | 52 | 1014.1 |
| 20260502222054 | 47 | 300 | 1.0 | 5.0 | 0.00 | 0.00 | 0.00 | 50 | 1014.1 |
| 20260502221553 | 47 | 283 | 1.0 | 5.0 | 0.00 | 0.00 | 0.00 | 50 | 1014.1 |
| 20260502221055 | 47 | 293 | 1.0 | 5.0 | 0.00 | 0.00 | 0.00 | 50 | 1014.1 |
| 20260502220555 | 47 | 0 | 0.0 | 5.0 | 0.00 | 0.00 | 0.00 | 52 | 1014.0 |
| 20260502220054 | 47 | 289 | 1.0 | 7.0 | 0.00 | 0.00 | 0.00 | 51 | 1014.1 |
| 20260502215555 | 47 | 306 | 1.0 | 7.0 | 0.00 | 0.00 | 0.00 | 53 | 1013.9 |
| 20260502215054 | 47 | 352 | 2.0 | 8.0 | 0.00 | 0.00 | 0.00 | 51 | 1013.9 |
| 20260502214555 | 48 | 348 | 1.0 | 8.0 | 0.00 | 0.00 | 0.00 | 52 | 1013.9 |
| 20260502214054 | 47 | 286 | 1.0 | 5.0 | 0.00 | 0.00 | 0.00 | 51 | 1013.9 |
| 20260502213554 | 47 | 290 | 1.0 | 5.0 | 0.00 | 0.00 | 0.00 | 51 | 1013.9 |
| 20260502213100 | 47 | 297 | 2.0 | 7.0 | 0.00 | 0.00 | 0.00 | 51 | 1013.9 |
| 20260502212554 | 47 | 340 | 2.0 | 8.0 | 0.00 | 0.00 | 0.00 | 50 | 1013.9 |
| 20260502212055 | 47 | 272 | 1.0 | 8.0 | 0.00 | 0.00 | 0.00 | 49 | 1013.9 |
| 20260502211603 | 47 | 242 | 2.0 | 8.0 | 0.00 | 0.00 | 0.00 | 50 | 1013.9 |
| 20260502211057 | 48 | 0 | 2.0 | 8.0 | 0.00 | 0.00 | 0.00 | 49 | 1013.9 |
| 20260502210554 | 48 | 259 | 1.0 | 9.0 | 0.00 | 0.00 | 0.00 | 49 | 1013.9 |
| 20260502210117 | 47 | 348 | 3.0 | 9.0 | 0.00 | 0.00 | 0.00 | 51 | 1014.0 |
| 20260502205555 | 47 | 302 | 1.0 | 6.0 | 0.00 | 0.00 | 0.00 | 50 | 1014.1 |
| 20260502205058 | 46 | 0 | 2.0 | 6.0 | 0.00 | 0.00 | 0.00 | 49 | 1014.1 |
| 20260502204558 | 46 | 286 | 2.0 | 7.0 | 0.00 | 0.00 | 0.00 | 48 | 1014.1 |
| 20260502204054 | 46 | 295 | 2.0 | 8.0 | 0.00 | 0.00 | 0.00 | 48 | 1014.2 |
| 20260502203555 | 47 | 338 | 2.0 | 8.0 | 0.00 | 0.00 | 0.00 | 48 | 1014.2 |
| 20260502203057 | 47 | 268 | 2.0 | 8.0 | 0.00 | 0.00 | 0.00 | 48 | 1014.2 |
| 20260502202554 | 47 | 298 | 3.0 | 8.0 | 0.00 | 0.00 | 0.00 | 52 | 1014.2 |
| 20260502202054 | 47 | 294 | 2.0 | 8.0 | 0.00 | 0.00 | 0.00 | 50 | 1014.3 |
| 20260502201556 | 47 | 290 | 1.0 | 7.0 | 0.00 | 0.00 | 0.00 | 51 | 1014.3 |
| 20260502201055 | 47 | 5 | 2.0 | 8.0 | 0.00 | 0.00 | 0.00 | 49 | 1014.3 |
| 20260502200555 | 47 | 294 | 2.0 | 8.0 | 0.00 | 0.00 | 0.00 | 50 | 1014.3 |
| 20260502200057 | 47 | 312 | 1.0 | 8.0 | 0.00 | 0.00 | 0.00 | 49 | 1014.3 |
| 20260502195555 | 47 | 323 | 2.0 | 8.0 | 0.00 | 0.00 | 0.00 | 51 | 1014.4 |
| 20260502195055 | 47 | 343 | 2.0 | 11.0 | 0.00 | 0.00 | 0.00 | 51 | 1014.5 |
| 20260502194555 | 47 | 278 | 2.0 | 11.0 | 0.00 | 0.00 | 0.00 | 50 | 1014.6 |
| 20260502194058 | 47 | 328 | 2.0 | 8.0 | 0.00 | 0.00 | 0.00 | 47 | 1014.7 |
| 20260502193554 | 48 | 342 | 3.0 | 6.0 | 0.00 | 0.00 | 0.00 | 48 | 1014.6 |